Time,TemperatureF,DewpointF,PressureIn,WindDirection,WindDirectionDegrees,WindSpeedMPH,WindSpeedGustMPH,Humidity,HourlyPrecipIn,Conditions,Clouds,dailyrainin,SoftwareType,DateUTC
2013-06-29 00:01:00,68.0,61.0,-100.00,NNW,345,0.0,0.0,78,0.00,,,-99.99,,2013-06-29 04:01:00,
2013-06-29 00:11:00,68.0,60.0,-100.00,NW,325,0.0,0.0,77,0.00,,,-99.99,,2013-06-29 04:11:00,
2013-06-29 00:23:00,67.0,60.0,-100.00,NNW,335,0.0,0.0,78,0.00,,,-99.99,,2013-06-29 04:23:00,
2013-06-29 00:32:00,67.0,60.0,-100.00,NNE,25,0.0,0.0,78,0.00,,,-99.99,,2013-06-29 04:32:00,
2013-06-29 00:41:00,66.0,61.0,-100.00,NNE,15,0.0,0.0,82,0.00,,,-99.99,,2013-06-29 04:41:00,
2013-06-29 00:51:00,67.0,60.0,-100.00,NNE,15,0.0,0.0,80,0.00,,,-99.99,,2013-06-29 04:51:00,
2013-06-29 01:01:00,66.0,60.0,-100.00,North,0,0.0,0.0,80,0.00,,,-99.99,,2013-06-29 05:01:00,
2013-06-29 01:11:00,67.0,60.0,-100.00,SSW,195,0.0,0.0,79,0.00,,,-99.99,,2013-06-29 05:11:00,
2013-06-29 01:21:00,66.0,61.0,-100.00,NNW,340,0.0,0.0,84,0.00,,,-99.99,,2013-06-29 05:21:00,
2013-06-29 01:31:00,65.0,60.0,-100.00,North,0,0.0,0.0,83,0.00,,,-99.99,,2013-06-29 05:31:00,
2013-06-29 01:41:00,65.0,60.0,-100.00,NNW,335,0.0,0.0,84,0.00,,,-99.99,,2013-06-29 05:41:00,
2013-06-29 01:51:00,65.0,60.0,-100.00,NW,315,0.0,0.0,84,0.00,,,-99.99,,2013-06-29 05:51:00,
2013-06-29 02:01:00,64.0,60.0,-100.00,NW,320,0.0,0.0,84,0.00,,,-99.99,,2013-06-29 06:01:00,
2013-06-29 02:22:00,64.0,59.0,-100.00,North,0,0.0,0.0,84,0.00,,,-99.99,,2013-06-29 06:22:00,
2013-06-29 03:02:00,64.0,59.0,-100.00,North,5,0.0,0.0,86,0.00,,,-99.99,,2013-06-29 07:02:00,
2013-06-29 03:33:00,63.0,60.0,-100.00,West,260,0.0,0.0,88,0.00,,,-99.99,,2013-06-29 07:33:00,
2013-06-29 03:43:00,63.0,60.0,-100.00,North,0,0.0,0.0,88,0.00,,,-99.99,,2013-06-29 07:43:00,
2013-06-29 03:53:00,63.0,60.0,-100.00,NW,310,0.0,0.0,89,0.00,,,-99.99,,2013-06-29 07:53:00,
2013-06-29 04:01:00,63.0,60.0,-100.00,NW,325,0.0,0.0,89,0.00,,,-99.99,,2013-06-29 08:01:00,
2013-06-29 04:22:00,63.0,60.0,-100.00,WNW,300,0.0,0.0,89,0.00,,,-99.99,,2013-06-29 08:22:00,
2013-06-29 04:33:00,63.0,60.0,-100.00,North,355,0.0,0.0,90,0.00,,,-99.99,,2013-06-29 08:33:00,
2013-06-29 04:43:00,64.0,60.0,-100.00,North,0,0.0,0.0,89,0.00,,,-99.99,,2013-06-29 08:43:00,
2013-06-29 04:52:00,63.0,60.0,-100.00,NNE,25,0.0,0.0,90,0.00,,,-99.99,,2013-06-29 08:52:00,
2013-06-29 05:02:00,63.0,60.0,-100.00,NNE,15,0.0,0.0,90,0.00,,,-99.99,,2013-06-29 09:02:00,
2013-06-29 05:22:00,63.0,60.0,-100.00,NNE,25,0.0,0.0,90,0.00,,,-99.99,,2013-06-29 09:22:00,
2013-06-29 05:42:00,63.0,60.0,-100.00,North,0,0.0,0.0,91,0.00,,,-99.99,,2013-06-29 09:42:00,
2013-06-29 05:53:00,63.0,60.0,-100.00,WNW,295,0.0,0.0,91,0.00,,,-99.99,,2013-06-29 09:53:00,
2013-06-29 06:01:00,63.0,60.0,-100.00,NNW,345,0.0,0.0,91,0.00,,,-99.99,,2013-06-29 10:01:00,
2013-06-29 06:11:00,63.0,60.0,-100.00,NW,305,0.0,0.0,91,0.00,,,-99.99,,2013-06-29 10:11:00,
2013-06-29 06:22:00,63.0,60.0,-100.00,NW,305,0.0,0.0,91,0.00,,,-99.99,,2013-06-29 10:22:00,
2013-06-29 06:33:00,63.0,60.0,-100.00,North,350,0.0,0.0,91,0.00,,,-99.99,,2013-06-29 10:33:00,
2013-06-29 06:43:00,63.0,60.0,-100.00,North,350,0.0,0.0,91,0.00,,,-99.99,,2013-06-29 10:43:00,
2013-06-29 06:52:00,63.0,60.0,-100.00,North,0,0.0,0.0,91,0.00,,,-99.99,,2013-06-29 10:52:00,
2013-06-29 07:02:00,63.0,60.0,-100.00,North,10,0.0,0.0,91,0.00,,,-99.99,,2013-06-29 11:02:00,
2013-06-29 07:11:00,63.0,60.0,-100.00,NW,325,0.0,0.0,91,0.00,,,-99.99,,2013-06-29 11:11:00,
2013-06-29 07:43:00,64.0,61.0,-100.00,North,5,0.0,0.0,89,0.00,,,-99.99,,2013-06-29 11:43:00,
2013-06-29 07:53:00,65.0,61.0,-100.00,NNW,340,0.0,0.0,88,0.00,,,-99.99,,2013-06-29 11:53:00,
2013-06-29 08:43:00,67.0,62.0,-100.00,North,0,0.0,0.0,82,0.00,,,-99.99,,2013-06-29 12:43:00,
2013-06-29 09:02:00,68.0,62.0,-100.00,North,0,0.0,0.0,82,0.00,,,-99.99,,2013-06-29 13:02:00,
2013-06-29 09:11:00,67.0,62.0,-100.00,NNW,345,0.0,0.0,84,0.00,,,-99.99,,2013-06-29 13:11:00,
2013-06-29 09:23:00,67.0,62.0,-100.00,NNE,15,0.0,0.0,86,0.00,,,-99.99,,2013-06-29 13:23:00,
2013-06-29 09:34:00,67.0,62.0,-100.00,NNE,15,0.0,0.0,86,0.00,,,-99.99,,2013-06-29 13:34:00,
2013-06-29 09:43:00,67.0,62.0,-100.00,NNW,335,0.0,0.0,84,0.00,,,-99.99,,2013-06-29 13:43:00,
2013-06-29 10:12:00,69.0,62.0,-100.00,North,0,0.0,0.0,79,0.00,,,-99.99,,2013-06-29 14:12:00,
2013-06-29 10:44:00,71.0,63.0,-100.00,North,0,0.0,0.0,76,0.00,,,-99.99,,2013-06-29 14:44:00,
2013-06-29 11:11:00,73.0,64.0,-100.00,SE,140,0.0,0.0,71,0.00,,,-99.99,,2013-06-29 15:11:00,
2013-06-29 11:33:00,74.0,63.0,-100.00,North,0,0.0,0.0,68,0.00,,,-99.99,,2013-06-29 15:33:00,
2013-06-29 11:42:00,74.0,62.0,-100.00,North,0,0.0,0.0,65,0.00,,,-99.99,,2013-06-29 15:42:00,
2013-06-29 11:53:00,75.0,63.0,-100.00,NNE,15,0.0,0.0,66,0.00,,,-99.99,,2013-06-29 15:53:00,
2013-06-29 12:02:00,75.0,63.0,-100.00,North,10,0.0,0.0,65,0.00,,,-99.99,,2013-06-29 16:02:00,
2013-06-29 12:12:00,76.0,63.0,-100.00,NNE,20,0.0,0.0,65,0.00,,,-99.99,,2013-06-29 16:12:00,
2013-06-29 12:22:00,76.0,64.0,-100.00,NW,320,0.0,0.0,67,0.00,,,-99.99,,2013-06-29 16:22:00,
2013-06-29 12:33:00,74.0,63.0,-100.00,North,350,0.0,0.0,68,0.00,,,-99.99,,2013-06-29 16:33:00,
2013-06-29 12:43:00,75.0,63.0,-100.00,NNW,345,0.0,0.0,66,0.00,,,-99.99,,2013-06-29 16:43:00,
2013-06-29 12:53:00,76.0,64.0,-100.00,North,0,0.0,0.0,65,0.00,,,-99.99,,2013-06-29 16:53:00,
2013-06-29 13:01:00,76.0,64.0,-100.00,WNW,290,0.0,0.0,65,0.00,,,-99.99,,2013-06-29 17:01:00,
2013-06-29 13:12:00,76.0,64.0,-100.00,NNW,330,0.0,0.0,64,0.00,,,-99.99,,2013-06-29 17:12:00,
2013-06-29 13:23:00,76.0,62.0,-100.00,NE,35,0.0,0.0,61,0.00,,,-99.99,,2013-06-29 17:23:00,
2013-06-29 13:34:00,77.0,62.0,-100.00,NNW,330,0.0,0.0,60,0.00,,,-99.99,,2013-06-29 17:34:00,
2013-06-29 13:42:00,78.0,63.0,-100.00,NW,310,0.0,0.0,61,0.00,,,-99.99,,2013-06-29 17:42:00,
2013-06-29 13:52:00,77.0,62.0,-100.00,NW,315,0.0,0.0,60,0.00,,,-99.99,,2013-06-29 17:52:00,
2013-06-29 14:02:00,78.0,62.0,-100.00,North,0,0.0,0.0,59,0.00,,,-99.99,,2013-06-29 18:02:00,
2013-06-29 14:12:00,78.0,65.0,-100.00,North,10,0.0,0.0,64,0.00,,,-99.99,,2013-06-29 18:12:00,
2013-06-29 14:22:00,77.0,64.0,-100.00,North,355,0.0,0.0,63,0.00,,,-99.99,,2013-06-29 18:22:00,
2013-06-29 14:34:00,78.0,64.0,-100.00,North,0,0.0,0.0,62,0.00,,,-99.99,,2013-06-29 18:34:00,
2013-06-29 14:43:00,77.0,64.0,-100.00,North,10,0.0,0.0,63,0.00,,,-99.99,,2013-06-29 18:43:00,
2013-06-29 14:53:00,77.0,63.0,-100.00,North,0,0.0,0.0,62,0.00,,,-99.99,,2013-06-29 18:53:00,
2013-06-29 15:01:00,77.0,63.0,-100.00,NW,310,0.0,0.0,63,0.00,,,-99.99,,2013-06-29 19:01:00,
2013-06-29 15:12:00,77.0,63.0,-100.00,NW,315,0.0,0.0,62,0.00,,,-99.99,,2013-06-29 19:12:00,
2013-06-29 15:22:00,78.0,64.0,-100.00,NNE,25,0.0,0.0,62,0.00,,,-99.99,,2013-06-29 19:22:00,
2013-06-29 15:34:00,78.0,63.0,-100.00,NW,315,0.0,0.0,59,0.00,,,-99.99,,2013-06-29 19:34:00,
2013-06-29 15:43:00,79.0,63.0,-100.00,NW,315,0.0,0.0,58,0.00,,,-99.99,,2013-06-29 19:43:00,
2013-06-29 15:54:00,80.0,62.0,-100.00,North,355,0.0,0.0,54,0.00,,,-99.99,,2013-06-29 19:54:00,
2013-06-29 16:02:00,80.0,63.0,-100.00,North,0,0.0,0.0,56,0.00,,,-99.99,,2013-06-29 20:02:00,
2013-06-29 16:12:00,81.0,64.0,-100.00,NNE,25,0.0,0.0,56,0.00,,,-99.99,,2013-06-29 20:12:00,
2013-06-29 16:23:00,80.0,64.0,-100.00,NNW,330,0.0,0.0,57,0.00,,,-99.99,,2013-06-29 20:23:00,
2013-06-29 16:33:00,78.0,63.0,-100.00,NW,325,0.0,0.0,59,0.00,,,-99.99,,2013-06-29 20:33:00,
2013-06-29 16:43:00,80.0,63.0,-100.00,NNW,340,0.0,0.0,57,0.00,,,-99.99,,2013-06-29 20:43:00,
2013-06-29 16:52:00,78.0,63.0,-100.00,NNW,340,0.0,0.0,58,0.00,,,-99.99,,2013-06-29 20:52:00,
2013-06-29 17:02:00,78.0,62.0,-100.00,North,0,0.0,0.0,58,0.00,,,-99.99,,2013-06-29 21:02:00,
2013-06-29 17:11:00,81.0,63.0,-100.00,NNE,20,0.0,0.0,54,0.00,,,-99.99,,2013-06-29 21:11:00,
2013-06-29 17:22:00,78.0,63.0,-100.00,North,0,0.0,0.0,60,0.00,,,-99.99,,2013-06-29 21:22:00,
2013-06-29 17:32:00,78.0,63.0,-100.00,North,355,0.0,0.0,60,0.00,,,-99.99,,2013-06-29 21:32:00,
2013-06-29 17:42:00,77.0,63.0,-100.00,North,0,0.0,0.0,62,0.00,,,-99.99,,2013-06-29 21:42:00,
2013-06-29 17:52:00,77.0,64.0,-100.00,North,0,0.0,0.0,64,0.00,,,-99.99,,2013-06-29 21:52:00,
2013-06-29 18:01:00,77.0,65.0,-100.00,North,10,0.0,0.0,65,0.00,,,-99.99,,2013-06-29 22:01:00,
2013-06-29 18:11:00,77.0,64.0,-100.00,NNW,340,0.0,0.0,64,0.00,,,-99.99,,2013-06-29 22:11:00,
2013-06-29 18:21:00,77.0,64.0,-100.00,North,0,0.0,0.0,64,0.00,,,-99.99,,2013-06-29 22:21:00,
2013-06-29 18:33:00,77.0,64.0,-100.00,North,10,0.0,0.0,65,0.00,,,-99.99,,2013-06-29 22:33:00,
2013-06-29 18:43:00,73.0,61.0,-100.00,SE,125,0.0,0.0,67,0.00,,,-99.99,,2013-06-29 22:43:00,
2013-06-29 18:53:00,71.0,61.0,-100.00,SE,140,0.0,0.0,68,0.00,,,-99.99,,2013-06-29 22:53:00,
2013-06-29 19:02:00,72.0,61.0,-100.00,SSE,160,0.0,0.0,68,0.00,,,-99.99,,2013-06-29 23:02:00,
2013-06-29 19:12:00,73.0,61.0,-100.00,SSE,160,0.0,0.0,67,0.00,,,-99.99,,2013-06-29 23:12:00,
2013-06-29 19:23:00,71.0,62.0,-100.00,SSE,155,0.0,0.0,71,0.00,,,-99.99,,2013-06-29 23:23:00,
2013-06-29 19:34:00,69.0,60.0,-100.00,ESE,115,0.0,0.0,75,0.00,,,-99.99,,2013-06-29 23:34:00,
2013-06-29 19:43:00,69.0,60.0,-100.00,South,170,0.0,0.0,75,0.00,,,-99.99,,2013-06-29 23:43:00,
2013-06-29 19:52:00,69.0,60.0,-100.00,SSE,165,0.0,0.0,73,0.00,,,-99.99,,2013-06-29 23:52:00,
2013-06-29 20:02:00,68.0,60.0,-100.00,SE,135,0.0,0.0,75,0.00,,,-99.99,,2013-06-30 00:02:00,
2013-06-29 20:12:00,68.0,60.0,-100.00,SE,140,0.0,0.0,75,0.00,,,-99.99,,2013-06-30 00:12:00,
2013-06-29 20:22:00,68.0,60.0,-100.00,SE,130,0.0,0.0,76,0.00,,,-99.99,,2013-06-30 00:22:00,
2013-06-29 20:33:00,67.0,60.0,-100.00,South,170,0.0,0.0,77,0.00,,,-99.99,,2013-06-30 00:33:00,
2013-06-29 20:43:00,68.0,60.0,-100.00,South,170,0.0,0.0,75,0.00,,,-99.99,,2013-06-30 00:43:00,
2013-06-29 20:52:00,67.0,60.0,-100.00,East,95,0.0,0.0,76,0.00,,,-99.99,,2013-06-30 00:52:00,
2013-06-29 21:01:00,68.0,60.0,-100.00,SSE,150,0.0,0.0,74,0.00,,,-99.99,,2013-06-30 01:01:00,
2013-06-29 21:11:00,69.0,60.0,-100.00,SSW,210,0.0,0.0,73,0.00,,,-99.99,,2013-06-30 01:11:00,
2013-06-29 21:22:00,68.0,60.0,-100.00,SSW,195,0.0,0.0,74,0.00,,,-99.99,,2013-06-30 01:22:00,
2013-06-29 21:33:00,67.0,60.0,-100.00,WSW,245,0.0,0.0,76,0.00,,,-99.99,,2013-06-30 01:33:00,
2013-06-29 21:44:00,67.0,59.0,-100.00,SSW,195,0.0,0.0,75,0.00,,,-99.99,,2013-06-30 01:44:00,
2013-06-29 21:53:00,67.0,60.0,-100.00,WSW,245,0.0,0.0,77,0.00,,,-99.99,,2013-06-30 01:53:00,
2013-06-29 22:02:00,67.0,60.0,-100.00,West,280,0.0,0.0,78,0.00,,,-99.99,,2013-06-30 02:02:00,
2013-06-29 22:11:00,67.0,60.0,-100.00,WSW,240,0.0,0.0,77,0.00,,,-99.99,,2013-06-30 02:11:00,
2013-06-29 22:24:00,67.0,60.0,-100.00,WSW,240,0.0,0.0,77,0.00,,,-99.99,,2013-06-30 02:24:00,
2013-06-29 22:34:00,67.0,60.0,-100.00,SSW,210,0.0,0.0,77,0.00,,,-99.99,,2013-06-30 02:34:00,
2013-06-29 22:43:00,67.0,60.0,-100.00,South,185,0.0,0.0,77,0.00,,,-99.99,,2013-06-30 02:43:00,
2013-06-29 22:53:00,67.0,60.0,-100.00,SE,140,0.0,0.0,78,0.00,,,-99.99,,2013-06-30 02:53:00,
2013-06-29 23:01:00,66.0,60.0,-100.00,SSE,155,0.0,0.0,80,0.00,,,-99.99,,2013-06-30 03:01:00,
2013-06-29 23:12:00,66.0,60.0,-100.00,SSE,160,0.0,0.0,80,0.00,,,-99.99,,2013-06-30 03:12:00,
2013-06-29 23:23:00,66.0,60.0,-100.00,SSW,205,0.0,0.0,82,0.00,,,-99.99,,2013-06-30 03:23:00,
2013-06-29 23:33:00,66.0,61.0,-100.00,SSW,205,0.0,0.0,83,0.00,,,-99.99,,2013-06-30 03:33:00,
2013-06-29 23:43:00,66.0,61.0,-100.00,NE,45,0.0,0.0,83,0.00,,,-99.99,,2013-06-30 03:43:00,
2013-06-29 23:53:00,65.0,61.0,-100.00,WSW,255,0.0,0.0,85,0.00,,,-99.99,,2013-06-30 03:53:00,